Time,TemperatureF,DewpointF,PressureIn,WindDirection,WindDirectionDegrees,WindSpeedMPH,WindSpeedGustMPH,Humidity,HourlyPrecipIn,Conditions,Clouds,dailyrainin,SoftwareType,DateUTC
2013-05-15 00:01:00,50.4,34.8,29.99,WSW,248,0.0,0.0,55,0.00,CLR,,0.00,WeatherDisplay:10.37,2013-05-15 04:01:00,
2013-05-15 00:03:00,50.2,35.1,29.99,WSW,248,0.0,0.0,56,0.00,CLR,,0.00,WeatherDisplay:10.37,2013-05-15 04:03:00,
2013-05-15 00:04:00,50.2,35.1,29.99,WSW,248,0.0,0.0,56,0.00,CLR,,0.00,WeatherDisplay:10.37,2013-05-15 04:04:00,
2013-05-15 00:05:00,50.2,35.1,30.00,WSW,248,0.0,0.0,56,0.00,CLR,,0.00,WeatherDisplay:10.37,2013-05-15 04:05:00,
2013-05-15 00:10:00,50.2,35.1,30.00,WSW,248,0.0,0.0,56,0.00,CLR,,0.00,WeatherDisplay:10.37,2013-05-15 04:10:00,
2013-05-15 00:15:00,49.8,35.2,30.00,SSW,202,0.0,0.0,57,0.00,CLR,,0.00,WeatherDisplay:10.37,2013-05-15 04:15:00,
2013-05-15 00:20:00,49.8,35.2,30.00,SW,225,0.0,0.0,57,0.00,FEW,,0.00,WeatherDisplay:10.37,2013-05-15 04:20:00,
2013-05-15 00:25:00,49.6,35.0,29.99,SSW,202,0.0,0.0,57,0.00,FEW,,0.00,WeatherDisplay:10.37,2013-05-15 04:25:00,
2013-05-15 00:30:00,49.6,35.5,29.99,West,270,0.0,0.0,58,0.00,FEW,,0.00,WeatherDisplay:10.37,2013-05-15 04:30:00,
2013-05-15 00:35:00,49.5,35.7,29.99,WSW,248,0.0,0.0,59,0.00,FEW,,0.00,WeatherDisplay:10.37,2013-05-15 04:35:00,
2013-05-15 00:40:00,49.5,35.3,29.99,West,270,0.0,0.0,58,0.00,FEW,,0.00,WeatherDisplay:10.37,2013-05-15 04:40:00,
2013-05-15 00:45:00,49.5,35.7,29.99,SSW,202,0.0,0.0,59,0.00,FEW,,0.00,WeatherDisplay:10.37,2013-05-15 04:45:00,
2013-05-15 00:50:00,49.1,35.4,29.99,SSW,202,0.0,0.0,59,0.00,FEW,,0.00,WeatherDisplay:10.37,2013-05-15 04:50:00,
2013-05-15 00:55:00,48.9,35.2,29.99,SSE,158,0.0,0.0,59,0.00,FEW,,0.00,WeatherDisplay:10.37,2013-05-15 04:55:00,
2013-05-15 01:00:00,48.9,35.6,29.99,South,180,0.0,0.0,60,0.00,FEW,,0.00,WeatherDisplay:10.37,2013-05-15 05:00:00,
2013-05-15 01:05:00,48.9,35.6,29.99,South,180,0.0,0.0,60,0.00,FEW,,0.00,WeatherDisplay:10.37,2013-05-15 05:05:00,
2013-05-15 01:10:00,48.7,35.9,29.99,South,180,0.0,0.0,61,0.00,FEW,,0.00,WeatherDisplay:10.37,2013-05-15 05:10:00,
2013-05-15 01:15:00,48.7,35.9,29.99,South,180,0.0,0.0,61,0.00,FEW,,0.00,WeatherDisplay:10.37,2013-05-15 05:15:00,
2013-05-15 01:20:00,48.6,35.3,29.99,South,180,0.0,0.0,60,0.00,FEW,,0.00,WeatherDisplay:10.37,2013-05-15 05:20:00,
2013-05-15 01:25:00,48.4,35.1,29.99,South,180,0.0,0.0,60,0.00,FEW,,0.00,WeatherDisplay:10.37,2013-05-15 05:25:00,
2013-05-15 01:30:00,48.4,35.5,29.99,West,270,0.0,0.0,61,0.00,FEW,,0.00,WeatherDisplay:10.37,2013-05-15 05:30:00,
2013-05-15 01:35:00,48.4,35.5,29.99,West,270,0.0,0.0,61,0.00,FEW,,0.00,WeatherDisplay:10.37,2013-05-15 05:35:00,
2013-05-15 01:40:00,48.2,35.4,29.99,SW,225,0.0,0.0,61,0.00,FEW,,0.00,WeatherDisplay:10.37,2013-05-15 05:40:00,
2013-05-15 01:45:00,48.2,35.8,29.99,SSW,202,0.0,0.0,62,0.00,FEW,,0.00,WeatherDisplay:10.37,2013-05-15 05:45:00,
2013-05-15 01:50:00,48.0,35.6,29.99,South,180,0.0,0.0,62,0.00,FEW,,0.00,WeatherDisplay:10.37,2013-05-15 05:50:00,
2013-05-15 01:55:00,48.0,35.6,29.99,South,180,0.0,0.0,62,0.00,FEW,,0.00,WeatherDisplay:10.37,2013-05-15 05:55:00,
2013-05-15 02:00:00,48.0,35.6,29.99,WSW,248,0.0,0.0,62,0.00,FEW,,0.00,WeatherDisplay:10.37,2013-05-15 06:00:00,
2013-05-15 02:05:00,48.0,36.0,29.98,NW,315,0.0,0.0,63,0.00,FEW,,0.00,WeatherDisplay:10.37,2013-05-15 06:05:00,
2013-05-15 02:10:00,47.8,35.4,29.98,South,180,0.0,0.0,62,0.00,FEW,,0.00,WeatherDisplay:10.37,2013-05-15 06:10:00,
2013-05-15 02:15:00,47.7,35.3,29.98,NNW,338,1.2,0.0,62,0.00,FEW,,0.00,WeatherDisplay:10.37,2013-05-15 06:15:00,
2013-05-15 02:20:00,47.5,35.5,29.98,NW,315,0.0,0.0,63,0.00,FEW,,0.00,WeatherDisplay:10.37,2013-05-15 06:20:00,
2013-05-15 02:25:00,47.7,36.1,29.97,NNW,338,0.0,0.0,64,0.00,FEW,,0.00,WeatherDisplay:10.37,2013-05-15 06:25:00,
2013-05-15 02:30:00,47.7,36.1,29.97,SE,135,0.0,0.0,64,0.00,FEW,,0.00,WeatherDisplay:10.37,2013-05-15 06:30:00,
2013-05-15 02:35:00,47.7,36.1,29.97,SE,135,0.0,0.0,64,0.00,FEW,,0.00,WeatherDisplay:10.37,2013-05-15 06:35:00,
2013-05-15 02:40:00,48.0,36.8,29.97,NW,315,0.0,0.0,65,0.00,FEW,,0.00,WeatherDisplay:10.37,2013-05-15 06:40:00,
2013-05-15 02:45:00,47.7,36.5,29.97,NNW,338,0.0,0.0,65,0.00,FEW,,0.00,WeatherDisplay:10.37,2013-05-15 06:45:00,
2013-05-15 02:50:00,47.5,37.1,29.97,NW,315,0.0,0.0,67,0.00,FEW,,0.00,WeatherDisplay:10.37,2013-05-15 06:50:00,
2013-05-15 02:55:00,47.7,37.2,29.97,NE,45,0.0,0.0,67,0.00,FEW,,0.00,WeatherDisplay:10.37,2013-05-15 06:55:00,
2013-05-15 03:00:00,47.7,37.2,29.97,NW,315,0.0,0.0,67,0.00,FEW,,0.00,WeatherDisplay:10.37,2013-05-15 07:00:00,
2013-05-15 03:05:00,47.8,37.8,29.97,NNW,338,0.0,0.0,68,0.00,FEW,,0.00,WeatherDisplay:10.37,2013-05-15 07:05:00,
2013-05-15 03:10:00,48.0,38.0,29.97,NNW,338,0.0,0.0,68,0.00,FEW,,0.00,WeatherDisplay:10.37,2013-05-15 07:10:00,
2013-05-15 03:15:00,48.0,38.0,29.97,NW,315,0.0,0.0,68,0.00,FEW,,0.00,WeatherDisplay:10.37,2013-05-15 07:15:00,
2013-05-15 03:20:00,47.8,37.8,29.97,West,270,0.0,0.0,68,0.00,FEW,,0.00,WeatherDisplay:10.37,2013-05-15 07:20:00,
2013-05-15 03:25:00,48.0,38.0,29.97,NE,45,0.0,0.0,68,0.00,FEW,,0.00,WeatherDisplay:10.37,2013-05-15 07:25:00,
2013-05-15 03:30:00,48.2,38.1,29.97,WSW,248,0.0,0.0,68,0.00,FEW,,0.00,WeatherDisplay:10.37,2013-05-15 07:30:00,
2013-05-15 03:35:00,48.2,38.1,29.97,WSW,248,0.0,0.0,68,0.00,FEW,,0.00,WeatherDisplay:10.37,2013-05-15 07:35:00,
2013-05-15 03:40:00,48.4,38.3,29.97,WSW,248,0.0,0.0,68,0.00,FEW,,0.00,WeatherDisplay:10.37,2013-05-15 07:40:00,
2013-05-15 03:45:00,48.7,38.6,29.97,SW,225,0.0,0.0,68,0.00,FEW,,0.00,WeatherDisplay:10.37,2013-05-15 07:45:00,
2013-05-15 03:50:00,48.7,38.6,29.97,SW,225,0.0,0.0,68,0.00,FEW,,0.00,WeatherDisplay:10.37,2013-05-15 07:50:00,
2013-05-15 03:55:00,48.9,38.1,29.97,South,180,0.0,0.0,66,0.00,FEW,,0.00,WeatherDisplay:10.37,2013-05-15 07:55:00,
2013-05-15 04:00:00,48.9,38.4,29.97,SSE,158,0.0,0.0,67,0.00,FEW,,0.00,WeatherDisplay:10.37,2013-05-15 08:00:00,
2013-05-15 04:05:00,49.1,38.6,29.97,SSW,202,0.0,0.0,67,0.00,FEW,,0.00,WeatherDisplay:10.37,2013-05-15 08:05:00,
2013-05-15 04:10:00,49.3,38.4,29.97,South,180,0.0,0.0,66,0.00,FEW,,0.00,WeatherDisplay:10.37,2013-05-15 08:10:00,
2013-05-15 04:15:00,49.3,38.8,29.97,South,180,0.0,0.0,67,0.00,FEW,,0.00,WeatherDisplay:10.37,2013-05-15 08:15:00,
2013-05-15 04:20:00,49.5,39.3,29.97,WSW,248,0.0,0.0,68,0.00,FEW,,0.00,WeatherDisplay:10.37,2013-05-15 08:20:00,
2013-05-15 04:25:00,49.5,39.0,29.96,SW,225,0.0,0.0,67,0.00,FEW,,0.00,WeatherDisplay:10.37,2013-05-15 08:25:00,
2013-05-15 04:30:00,49.5,39.3,29.96,NNW,338,0.0,0.0,68,0.00,FEW,,0.00,WeatherDisplay:10.37,2013-05-15 08:30:00,
2013-05-15 04:35:00,49.5,39.3,29.96,North,0,0.0,0.0,68,0.00,FEW,,0.00,WeatherDisplay:10.37,2013-05-15 08:35:00,
2013-05-15 04:40:00,49.3,39.5,29.96,ESE,112,0.0,0.0,69,0.00,FEW,,0.00,WeatherDisplay:10.37,2013-05-15 08:40:00,
2013-05-15 04:45:00,49.5,39.7,29.95,NNW,338,0.0,0.0,69,0.00,FEW,,0.00,WeatherDisplay:10.37,2013-05-15 08:45:00,
2013-05-15 04:50:00,49.5,39.3,29.95,NNW,338,0.0,0.0,68,0.00,FEW,,0.00,WeatherDisplay:10.37,2013-05-15 08:50:00,
2013-05-15 04:55:00,49.5,39.7,29.95,NW,315,0.0,0.0,69,0.00,FEW,,0.00,WeatherDisplay:10.37,2013-05-15 08:55:00,
2013-05-15 05:00:00,49.5,39.7,29.95,NNW,338,0.0,0.0,69,0.00,FEW,,0.00,WeatherDisplay:10.37,2013-05-15 09:00:00,
2013-05-15 05:05:00,49.5,39.7,29.95,NW,315,0.0,0.0,69,0.00,FEW,,0.00,WeatherDisplay:10.37,2013-05-15 09:05:00,
2013-05-15 05:10:00,49.5,39.7,29.95,ENE,68,0.0,0.0,69,0.00,FEW,,0.00,WeatherDisplay:10.37,2013-05-15 09:10:00,
2013-05-15 05:15:00,49.6,40.3,29.95,ESE,112,0.0,0.0,70,0.00,FEW,,0.00,WeatherDisplay:10.37,2013-05-15 09:15:00,
2013-05-15 05:20:00,49.8,40.4,29.95,NW,315,0.0,0.0,70,0.00,FEW,,0.00,WeatherDisplay:10.37,2013-05-15 09:20:00,
2013-05-15 05:25:00,49.8,40.4,29.95,ENE,68,0.0,0.0,70,0.00,FEW,,0.00,WeatherDisplay:10.37,2013-05-15 09:25:00,
2013-05-15 05:30:00,49.8,40.4,29.95,NNE,22,2.3,2.3,70,0.00,FEW,,0.00,WeatherDisplay:10.37,2013-05-15 09:30:00,
2013-05-15 05:35:00,49.8,40.1,29.95,West,270,0.0,0.2,69,0.00,FEW,,0.00,WeatherDisplay:10.37,2013-05-15 09:35:00,
2013-05-15 05:40:00,49.8,40.1,29.95,SE,135,0.0,0.0,69,0.00,FEW,,0.00,WeatherDisplay:10.37,2013-05-15 09:40:00,
2013-05-15 05:45:00,49.8,40.1,29.95,SE,135,0.0,0.0,69,0.00,FEW,,0.00,WeatherDisplay:10.37,2013-05-15 09:45:00,
2013-05-15 05:50:00,50.0,40.6,29.95,SE,135,0.0,0.0,70,0.00,FEW,,0.00,WeatherDisplay:10.37,2013-05-15 09:50:00,
2013-05-15 05:55:00,50.0,40.2,29.95,SW,225,0.0,0.0,69,0.00,FEW,,0.00,WeatherDisplay:10.37,2013-05-15 09:55:00,
2013-05-15 06:00:00,50.2,40.4,29.95,WSW,248,0.0,0.0,69,0.00,FEW,,0.00,WeatherDisplay:10.37,2013-05-15 10:00:00,
2013-05-15 06:05:00,50.2,40.8,29.95,WSW,248,0.0,0.0,70,0.00,FEW,,0.00,WeatherDisplay:10.37,2013-05-15 10:05:00,
2013-05-15 06:10:00,50.4,40.9,29.95,WSW,248,0.0,0.0,70,0.00,FEW,,0.00,WeatherDisplay:10.37,2013-05-15 10:10:00,
2013-05-15 06:15:00,50.4,40.6,29.95,WNW,292,0.0,0.0,69,0.00,FEW,,0.00,WeatherDisplay:10.37,2013-05-15 10:15:00,
2013-05-15 06:20:00,50.4,40.9,29.95,NNE,22,0.0,0.0,70,0.00,FEW,,0.00,WeatherDisplay:10.37,2013-05-15 10:20:00,
2013-05-15 06:25:00,50.4,40.9,29.95,NNW,338,0.0,0.0,70,0.00,FEW,,0.00,WeatherDisplay:10.37,2013-05-15 10:25:00,
2013-05-15 06:30:00,50.5,41.5,29.95,NW,315,0.0,0.0,71,0.00,FEW,,0.00,WeatherDisplay:10.37,2013-05-15 10:30:00,
2013-05-15 06:35:00,50.5,41.1,29.95,NW,315,0.0,0.0,70,0.00,FEW,,0.00,WeatherDisplay:10.37,2013-05-15 10:35:00,
2013-05-15 06:40:00,50.5,41.5,29.95,WNW,292,0.0,0.0,71,0.00,FEW,,0.00,WeatherDisplay:10.37,2013-05-15 10:40:00,
2013-05-15 06:45:00,50.9,41.8,29.95,NW,315,0.0,0.0,71,0.00,FEW,,0.00,WeatherDisplay:10.37,2013-05-15 10:45:00,
2013-05-15 06:50:00,50.9,41.8,29.95,WNW,292,0.0,0.0,71,0.00,FEW,,0.00,WeatherDisplay:10.37,2013-05-15 10:50:00,
2013-05-15 06:55:00,50.9,42.2,29.95,NW,315,0.0,0.0,72,0.00,FEW,,0.00,WeatherDisplay:10.37,2013-05-15 10:55:00,
2013-05-15 07:00:00,51.1,42.4,29.95,NW,315,0.0,0.0,72,0.00,FEW,,0.00,WeatherDisplay:10.37,2013-05-15 11:00:00,
2013-05-15 07:06:00,51.3,42.5,29.94,ESE,112,0.0,0.0,72,0.00,FEW,,0.00,WeatherDisplay:10.37,2013-05-15 11:06:00,
2013-05-15 07:11:00,51.6,42.9,29.94,West,270,0.0,0.0,72,0.00,FEW,,0.00,WeatherDisplay:10.37,2013-05-15 11:11:00,
2013-05-15 07:17:00,51.6,42.9,29.94,NW,315,0.0,0.0,72,0.00,FEW,,0.00,WeatherDisplay:10.37,2013-05-15 11:17:00,
2013-05-15 07:22:00,51.6,42.9,29.94,NW,315,0.0,0.0,72,0.00,FEW,,0.00,WeatherDisplay:10.37,2013-05-15 11:22:00,
2013-05-15 07:27:00,51.8,43.1,29.94,NW,315,0.0,0.0,72,0.00,FEW,,0.00,WeatherDisplay:10.37,2013-05-15 11:27:00,
2013-05-15 07:32:00,52.3,43.9,29.94,WSW,248,0.0,0.0,73,0.00,FEW,,0.00,WeatherDisplay:10.37,2013-05-15 11:32:00,
2013-05-15 07:37:00,52.3,43.6,29.94,South,180,0.0,0.0,72,0.00,FEW,,0.00,WeatherDisplay:10.37,2013-05-15 11:37:00,
2013-05-15 07:42:00,52.9,44.1,29.94,South,180,0.0,0.2,72,0.00,FEW,,0.00,WeatherDisplay:10.37,2013-05-15 11:42:00,
2013-05-15 07:47:00,53.4,44.6,29.94,East,90,0.0,0.5,72,0.00,FEW,,0.00,WeatherDisplay:10.37,2013-05-15 11:47:00,
2013-05-15 07:52:00,53.8,44.2,29.94,SSE,158,2.3,2.3,70,0.00,FEW,,0.00,WeatherDisplay:10.37,2013-05-15 11:52:00,
2013-05-15 07:57:00,54.5,44.9,29.94,SE,135,1.2,1.3,70,0.00,FEW,,0.00,WeatherDisplay:10.37,2013-05-15 11:57:00,
2013-05-15 08:02:00,54.7,44.7,29.94,SSE,158,2.3,2.3,69,0.00,FEW,,0.00,WeatherDisplay:10.37,2013-05-15 12:02:00,
2013-05-15 08:07:00,55.4,45.0,29.93,SE,135,2.3,2.3,68,0.00,FEW,,0.00,WeatherDisplay:10.37,2013-05-15 12:07:00,
2013-05-15 08:12:00,55.8,45.0,29.93,SW,225,2.3,2.3,67,0.00,FEW,,0.00,WeatherDisplay:10.37,2013-05-15 12:12:00,
2013-05-15 08:17:00,55.9,44.7,29.93,SE,135,1.2,1.3,66,0.00,FEW,,0.00,WeatherDisplay:10.37,2013-05-15 12:17:00,
2013-05-15 08:22:00,56.1,44.9,29.93,SE,135,3.5,3.5,66,0.00,FEW,,0.00,WeatherDisplay:10.37,2013-05-15 12:22:00,
2013-05-15 08:28:00,56.8,44.8,29.93,South,180,4.6,4.6,64,0.00,FEW,,0.00,WeatherDisplay:10.37,2013-05-15 12:28:00,
2013-05-15 08:33:00,56.8,44.4,29.93,SSE,158,2.3,2.3,63,0.00,FEW,,0.00,WeatherDisplay:10.37,2013-05-15 12:33:00,
2013-05-15 08:38:00,57.2,43.9,29.93,South,180,5.8,5.8,61,0.00,FEW,,0.00,WeatherDisplay:10.37,2013-05-15 12:38:00,
2013-05-15 08:43:00,57.6,43.8,29.93,SSE,158,3.5,3.5,60,0.00,FEW,,0.00,WeatherDisplay:10.37,2013-05-15 12:43:00,
2013-05-15 08:48:00,58.1,44.7,29.92,SW,225,4.0,4.0,61,0.00,FEW,,0.00,WeatherDisplay:10.37,2013-05-15 12:48:00,
2013-05-15 08:53:00,58.6,45.7,29.92,SSE,158,2.3,2.3,62,0.00,FEW,,0.00,WeatherDisplay:10.37,2013-05-15 12:53:00,
2013-05-15 08:58:00,59.0,44.7,29.92,SSE,158,4.6,4.6,59,0.00,FEW,,0.00,WeatherDisplay:10.37,2013-05-15 12:58:00,
2013-05-15 09:03:00,59.5,44.7,29.92,SW,225,3.7,3.7,58,0.00,FEW,,0.00,WeatherDisplay:10.37,2013-05-15 13:03:00,
2013-05-15 09:08:00,59.5,44.7,29.90,ESE,112,3.5,3.5,58,0.00,FEW,,0.00,WeatherDisplay:10.37,2013-05-15 13:08:00,
2013-05-15 09:13:00,59.9,44.6,29.90,South,180,2.3,2.3,57,0.00,FEW,,0.00,WeatherDisplay:10.37,2013-05-15 13:13:00,
2013-05-15 09:18:00,60.3,45.4,29.90,South,180,2.3,2.3,58,0.00,FEW,,0.00,WeatherDisplay:10.37,2013-05-15 13:18:00,
2013-05-15 09:23:00,60.4,44.7,29.90,SW,225,2.3,2.3,56,0.00,FEW,,0.00,WeatherDisplay:10.37,2013-05-15 13:23:00,
2013-05-15 09:28:00,60.4,44.7,29.89,ESE,112,6.9,6.9,56,0.00,FEW,,0.00,WeatherDisplay:10.37,2013-05-15 13:28:00,
2013-05-15 09:33:00,60.8,44.5,29.89,SE,135,4.5,4.5,55,0.00,FEW,,0.00,WeatherDisplay:10.37,2013-05-15 13:33:00,
2013-05-15 09:38:00,61.0,44.7,29.89,SE,135,4.6,4.6,55,0.00,FEW,,0.00,WeatherDisplay:10.37,2013-05-15 13:38:00,
2013-05-15 09:43:00,61.2,45.3,29.89,NE,45,3.6,3.6,56,0.00,FEW,,0.00,WeatherDisplay:10.37,2013-05-15 13:43:00,
2013-05-15 09:48:00,61.2,44.9,29.86,SSE,158,3.5,3.5,55,0.00,FEW,,0.00,WeatherDisplay:10.37,2013-05-15 13:48:00,
2013-05-15 09:53:00,61.5,44.7,29.86,SSE,158,3.9,3.9,54,0.00,FEW,,0.00,WeatherDisplay:10.37,2013-05-15 13:53:00,
2013-05-15 09:58:00,61.5,45.2,29.86,South,180,2.3,3.3,55,0.00,FEW,,0.00,WeatherDisplay:10.37,2013-05-15 13:58:00,
2013-05-15 10:03:00,61.9,45.5,29.86,ENE,68,8.4,8.4,55,0.00,FEW,,0.00,WeatherDisplay:10.37,2013-05-15 14:03:00,
2013-05-15 10:08:00,61.7,45.4,29.86,SSE,158,3.5,3.5,55,0.00,FEW,,0.00,WeatherDisplay:10.37,2013-05-15 14:08:00,
2013-05-15 10:13:00,61.7,45.4,29.86,ESE,112,4.6,4.6,55,0.00,FEW,,0.00,WeatherDisplay:10.37,2013-05-15 14:13:00,
2013-05-15 10:18:00,61.9,45.0,29.86,SE,135,3.9,3.9,54,0.00,FEW,,0.00,WeatherDisplay:10.37,2013-05-15 14:18:00,
2013-05-15 10:23:00,62.1,44.7,29.86,ESE,112,4.6,4.6,53,0.00,FEW,,0.00,WeatherDisplay:10.37,2013-05-15 14:23:00,
2013-05-15 10:29:00,62.1,44.7,29.87,SSE,158,3.5,3.5,53,0.00,FEW,,0.00,WeatherDisplay:10.37,2013-05-15 14:29:00,
2013-05-15 10:34:00,62.1,45.2,29.87,SE,135,3.5,3.5,54,0.00,FEW,,0.00,WeatherDisplay:10.37,2013-05-15 14:34:00,
2013-05-15 10:39:00,61.9,45.0,29.87,South,180,4.6,4.6,54,0.00,FEW,,0.00,WeatherDisplay:10.37,2013-05-15 14:39:00,
2013-05-15 10:44:00,62.1,45.2,29.87,SSE,158,4.6,4.6,54,0.00,FEW,,0.00,WeatherDisplay:10.37,2013-05-15 14:44:00,
2013-05-15 10:49:00,62.1,44.7,29.86,SE,135,5.8,5.8,53,0.00,FEW,,0.00,WeatherDisplay:10.37,2013-05-15 14:49:00,
2013-05-15 10:54:00,62.4,44.6,29.86,SSE,158,4.6,4.6,52,0.00,FEW,,0.00,WeatherDisplay:10.37,2013-05-15 14:54:00,
2013-05-15 10:59:00,62.6,44.2,29.86,ENE,68,5.8,5.8,51,0.00,FEW,,0.00,WeatherDisplay:10.37,2013-05-15 14:59:00,
2013-05-15 11:04:00,62.6,43.7,29.86,South,180,4.6,4.6,50,0.00,FEW,,0.00,WeatherDisplay:10.37,2013-05-15 15:04:00,
2013-05-15 11:09:00,62.8,44.4,29.85,South,180,2.3,2.5,51,0.00,FEW,,0.00,WeatherDisplay:10.37,2013-05-15 15:09:00,
2013-05-15 11:14:00,62.8,43.9,29.85,SW,225,5.9,5.9,50,0.00,FEW,,0.00,WeatherDisplay:10.37,2013-05-15 15:14:00,
2013-05-15 11:19:00,62.6,44.2,29.85,SSW,202,4.6,4.6,51,0.00,FEW,,0.00,WeatherDisplay:10.37,2013-05-15 15:19:00,
2013-05-15 11:24:00,62.8,44.4,29.85,SSE,158,4.6,4.6,51,0.00,FEW,,0.00,WeatherDisplay:10.37,2013-05-15 15:24:00,
2013-05-15 11:29:00,62.8,44.4,29.86,South,180,1.2,1.7,51,0.00,FEW,,0.00,WeatherDisplay:10.37,2013-05-15 15:29:00,
2013-05-15 11:34:00,63.1,44.7,29.86,SSE,158,1.2,1.3,51,0.00,FEW,,0.00,WeatherDisplay:10.37,2013-05-15 15:34:00,
2013-05-15 11:39:00,63.5,45.0,29.86,ESE,112,4.6,4.6,51,0.00,FEW,,0.00,WeatherDisplay:10.37,2013-05-15 15:39:00,
2013-05-15 11:44:00,63.9,45.4,29.86,NNW,338,3.5,3.5,51,0.00,FEW,,0.00,WeatherDisplay:10.37,2013-05-15 15:44:00,
2013-05-15 11:49:00,63.9,45.4,29.85,South,180,3.5,3.5,51,0.00,FEW,,0.00,WeatherDisplay:10.37,2013-05-15 15:49:00,
2013-05-15 11:55:00,63.5,45.0,29.85,South,180,3.5,3.5,51,0.00,FEW,,0.00,WeatherDisplay:10.37,2013-05-15 15:55:00,
2013-05-15 12:01:00,63.5,46.6,29.85,SE,135,2.3,2.3,54,0.00,FEW,,0.00,WeatherDisplay:10.37,2013-05-15 16:01:00,
2013-05-15 12:06:00,63.9,46.9,29.81,ESE,112,2.3,2.3,54,0.00,FEW,,0.00,WeatherDisplay:10.37,2013-05-15 16:06:00,
2013-05-15 12:11:00,64.0,47.1,29.81,ESE,112,2.3,2.3,54,0.00,FEW,,0.00,WeatherDisplay:10.37,2013-05-15 16:11:00,
2013-05-15 12:16:00,64.0,46.6,29.81,ENE,68,1.2,1.8,53,0.00,FEW,,0.00,WeatherDisplay:10.37,2013-05-15 16:16:00,
2013-05-15 12:21:00,64.2,47.7,29.81,ENE,68,2.3,2.3,55,0.00,FEW,,0.00,WeatherDisplay:10.37,2013-05-15 16:21:00,
2013-05-15 12:26:00,64.0,48.0,29.82,NE,45,2.3,2.3,56,0.00,FEW,,0.00,WeatherDisplay:10.37,2013-05-15 16:26:00,
2013-05-15 12:31:00,64.0,49.4,29.82,ESE,112,8.1,8.1,59,0.00,FEW,,0.00,WeatherDisplay:10.37,2013-05-15 16:31:00,
2013-05-15 12:37:00,64.2,50.0,29.82,ESE,112,5.8,5.8,60,0.00,FEW,,0.00,WeatherDisplay:10.37,2013-05-15 16:37:00,
2013-05-15 12:42:00,64.0,50.3,29.82,East,90,4.6,4.6,61,0.00,FEW,,0.00,WeatherDisplay:10.37,2013-05-15 16:42:00,
2013-05-15 12:47:00,64.6,51.3,29.80,SE,135,5.8,5.8,62,0.00,FEW,,0.00,WeatherDisplay:10.37,2013-05-15 16:47:00,
2013-05-15 12:52:00,64.2,50.9,29.80,ESE,112,5.8,5.8,62,0.00,FEW,,0.00,WeatherDisplay:10.37,2013-05-15 16:52:00,
2013-05-15 12:57:00,64.0,51.2,29.80,SE,135,4.6,4.6,63,0.00,FEW,,0.00,WeatherDisplay:10.37,2013-05-15 16:57:00,
2013-05-15 13:02:00,64.0,51.6,29.80,ESE,112,5.8,5.8,64,0.00,FEW,,0.00,WeatherDisplay:10.37,2013-05-15 17:02:00,
2013-05-15 13:07:00,64.0,52.0,29.79,East,90,3.5,3.5,65,0.00,FEW,,0.00,WeatherDisplay:10.37,2013-05-15 17:07:00,
2013-05-15 13:12:00,64.2,52.2,29.79,ENE,68,5.8,5.8,65,0.00,FEW,,0.00,WeatherDisplay:10.37,2013-05-15 17:12:00,
2013-05-15 13:17:00,64.2,51.8,29.79,ENE,68,4.6,4.6,64,0.00,FEW,,0.00,WeatherDisplay:10.37,2013-05-15 17:17:00,
2013-05-15 13:22:00,64.4,52.0,29.79,South,180,4.6,4.6,64,0.00,FEW,,0.00,WeatherDisplay:10.37,2013-05-15 17:22:00,
2013-05-15 13:27:00,64.6,52.5,29.79,SSE,158,4.6,4.6,65,0.00,FEW,,0.00,WeatherDisplay:10.37,2013-05-15 17:27:00,
2013-05-15 13:32:00,64.6,52.5,29.79,SE,135,4.6,4.6,65,0.00,FEW,,0.00,WeatherDisplay:10.37,2013-05-15 17:32:00,
2013-05-15 13:37:00,64.2,51.8,29.79,SSE,158,4.6,4.6,64,0.00,FEW,,0.00,WeatherDisplay:10.37,2013-05-15 17:37:00,
2013-05-15 13:43:00,64.0,52.4,29.79,East,90,3.5,3.5,66,0.00,FEW,,0.00,WeatherDisplay:10.37,2013-05-15 17:43:00,
2013-05-15 13:49:00,64.0,52.4,29.78,SE,135,1.2,1.2,66,0.00,FEW,,0.00,WeatherDisplay:10.37,2013-05-15 17:49:00,
2013-05-15 13:54:00,64.0,52.0,29.78,South,180,2.3,2.3,65,0.00,FEW,,0.00,WeatherDisplay:10.37,2013-05-15 17:54:00,
2013-05-15 13:59:00,63.9,52.3,29.78,SE,135,4.6,4.6,66,0.00,FEW,,0.00,WeatherDisplay:10.37,2013-05-15 17:59:00,
2013-05-15 14:05:00,63.7,52.1,29.78,NE,45,0.0,1.7,66,0.00,FEW,,0.00,WeatherDisplay:10.37,2013-05-15 18:05:00,
2013-05-15 14:10:00,63.9,52.7,29.78,ESE,112,5.8,5.8,67,0.00,FEW,,0.00,WeatherDisplay:10.37,2013-05-15 18:10:00,
2013-05-15 14:15:00,63.3,52.2,29.78,NW,315,3.5,3.5,67,0.00,FEW,,0.00,WeatherDisplay:10.37,2013-05-15 18:15:00,
2013-05-15 14:20:00,63.9,53.9,29.78,South,180,1.2,1.8,70,0.00,FEW,,0.00,WeatherDisplay:10.37,2013-05-15 18:20:00,
2013-05-15 14:25:00,63.9,54.3,29.76,East,90,2.3,2.3,71,0.00,FEW,,0.00,WeatherDisplay:10.37,2013-05-15 18:25:00,
2013-05-15 14:30:00,64.2,54.2,29.76,ENE,68,1.2,1.2,70,0.00,FEW,,0.00,WeatherDisplay:10.37,2013-05-15 18:30:00,
2013-05-15 14:36:00,64.6,55.0,29.76,SSE,158,2.3,2.3,71,0.00,FEW,,0.00,WeatherDisplay:10.37,2013-05-15 18:36:00,
2013-05-15 14:41:00,64.8,54.3,29.76,SE,135,2.3,2.3,69,0.00,FEW,,0.00,WeatherDisplay:10.37,2013-05-15 18:41:00,
2013-05-15 14:47:00,65.3,55.3,29.73,SSE,158,4.6,4.6,70,0.00,FEW,,0.00,WeatherDisplay:10.37,2013-05-15 18:47:00,
2013-05-15 14:52:00,65.5,55.0,29.73,ESE,112,5.8,5.8,69,0.00,FEW,,0.00,WeatherDisplay:10.37,2013-05-15 18:52:00,
2013-05-15 14:57:00,66.0,55.6,29.73,SSW,202,4.6,4.6,69,0.00,FEW,,0.00,WeatherDisplay:10.37,2013-05-15 18:57:00,
2013-05-15 15:02:00,66.2,54.9,29.73,ENE,68,6.9,6.9,67,0.00,FEW,,0.00,WeatherDisplay:10.37,2013-05-15 19:02:00,
2013-05-15 15:07:00,66.7,55.4,29.70,ESE,112,5.8,5.8,67,0.00,FEW,,0.00,WeatherDisplay:10.37,2013-05-15 19:07:00,
2013-05-15 15:12:00,66.7,54.6,29.70,South,180,4.6,4.6,65,0.00,FEW,,0.00,WeatherDisplay:10.37,2013-05-15 19:12:00,
2013-05-15 15:18:00,67.3,55.5,29.70,SSE,158,4.8,4.8,66,0.00,FEW,,0.00,WeatherDisplay:10.37,2013-05-15 19:18:00,
2013-05-15 15:23:00,67.5,55.3,29.70,SSE,158,6.9,6.9,65,0.00,FEW,,0.00,WeatherDisplay:10.37,2013-05-15 19:23:00,
2013-05-15 15:28:00,67.8,55.6,29.67,SE,135,2.0,2.9,65,0.00,FEW,,0.00,WeatherDisplay:10.37,2013-05-15 19:28:00,
2013-05-15 15:33:00,67.6,55.5,29.67,ESE,112,5.8,5.8,65,0.00,FEW,,0.00,WeatherDisplay:10.37,2013-05-15 19:33:00,
2013-05-15 15:38:00,67.6,55.5,29.67,ENE,68,3.5,3.5,65,0.00,FEW,,0.00,WeatherDisplay:10.37,2013-05-15 19:38:00,
2013-05-15 15:44:00,67.8,55.2,29.67,ENE,68,3.5,3.5,64,0.00,FEW,,0.00,WeatherDisplay:10.37,2013-05-15 19:44:00,
2013-05-15 15:49:00,68.0,54.9,29.66,South,180,3.5,3.5,63,0.00,FEW,,0.00,WeatherDisplay:10.37,2013-05-15 19:49:00,
2013-05-15 15:54:00,68.4,55.3,29.66,East,90,5.2,5.2,63,0.00,FEW,,0.00,WeatherDisplay:10.37,2013-05-15 19:54:00,
2013-05-15 15:59:00,68.4,55.3,29.66,ESE,112,4.6,4.6,63,0.00,FEW,,0.00,WeatherDisplay:10.37,2013-05-15 19:59:00,
2013-05-15 16:04:00,68.2,55.1,29.66,SE,135,4.6,4.6,63,0.00,FEW,,0.00,WeatherDisplay:10.37,2013-05-15 20:04:00,
2013-05-15 16:10:00,68.4,55.3,29.64,SE,135,4.6,4.6,63,0.00,FEW,,0.00,WeatherDisplay:10.37,2013-05-15 20:10:00,
2013-05-15 16:15:00,68.4,55.7,29.64,South,180,5.8,5.8,64,0.00,FEW,,0.00,WeatherDisplay:10.37,2013-05-15 20:15:00,
2013-05-15 16:21:00,68.4,55.7,29.64,ENE,68,5.8,5.8,64,0.00,FEW,,0.00,WeatherDisplay:10.37,2013-05-15 20:21:00,
2013-05-15 16:26:00,68.4,56.1,29.61,SE,135,3.5,3.5,65,0.00,FEW,,0.00,WeatherDisplay:10.37,2013-05-15 20:26:00,
2013-05-15 16:31:00,68.9,56.6,29.61,East,90,4.6,4.6,65,0.00,FEW,,0.00,WeatherDisplay:10.37,2013-05-15 20:31:00,
2013-05-15 16:36:00,68.9,56.2,29.61,WSW,248,2.3,2.5,64,0.00,FEW,,0.00,WeatherDisplay:10.37,2013-05-15 20:36:00,
2013-05-15 16:41:00,69.1,56.8,29.61,WSW,248,4.6,4.6,65,0.00,FEW,,0.00,WeatherDisplay:10.37,2013-05-15 20:41:00,
2013-05-15 16:46:00,69.3,57.0,29.61,ESE,112,1.2,2.0,65,0.00,FEW,,0.00,WeatherDisplay:10.37,2013-05-15 20:46:00,
2013-05-15 16:51:00,69.8,56.2,29.61,South,180,4.6,4.6,62,0.00,FEW,,0.00,WeatherDisplay:10.37,2013-05-15 20:51:00,
2013-05-15 16:56:00,70.7,56.1,29.61,WSW,248,1.2,2.3,60,0.00,FEW,,0.00,WeatherDisplay:10.37,2013-05-15 20:56:00,
2013-05-15 17:02:00,71.6,56.5,29.61,West,270,10.4,10.4,59,0.00,FEW,,0.00,WeatherDisplay:10.37,2013-05-15 21:02:00,
2013-05-15 17:07:00,72.3,56.2,29.62,WSW,248,4.6,4.6,57,0.00,FEW,,0.00,WeatherDisplay:10.37,2013-05-15 21:07:00,
2013-05-15 17:12:00,72.9,55.7,29.62,WSW,248,9.2,9.2,55,0.00,FEW,,0.00,WeatherDisplay:10.37,2013-05-15 21:12:00,
2013-05-15 17:17:00,72.9,55.7,29.62,WSW,248,3.5,3.5,55,0.00,FEW,,0.00,WeatherDisplay:10.37,2013-05-15 21:17:00,
2013-05-15 17:22:00,72.9,55.7,29.62,SW,225,4.6,4.6,55,0.00,FEW,,0.00,WeatherDisplay:10.37,2013-05-15 21:22:00,
2013-05-15 17:27:00,72.9,55.7,29.61,South,180,3.5,3.5,55,0.00,FEW,,0.00,WeatherDisplay:10.37,2013-05-15 21:27:00,
2013-05-15 17:32:00,73.0,55.9,29.61,South,180,2.3,2.3,55,0.00,FEW,,0.00,WeatherDisplay:10.37,2013-05-15 21:32:00,
2013-05-15 17:37:00,73.6,56.4,29.61,West,270,4.6,4.6,55,0.00,FEW,,0.00,WeatherDisplay:10.37,2013-05-15 21:37:00,
2013-05-15 17:42:00,73.4,56.2,29.61,WSW,248,2.3,2.3,55,0.00,FEW,,0.00,WeatherDisplay:10.37,2013-05-15 21:42:00,
2013-05-15 17:47:00,73.4,55.7,29.60,North,0,6.9,6.9,54,0.00,FEW,,0.00,WeatherDisplay:10.37,2013-05-15 21:47:00,
2013-05-15 17:52:00,73.4,55.7,29.60,West,270,2.3,2.4,54,0.00,FEW,,0.00,WeatherDisplay:10.37,2013-05-15 21:52:00,
2013-05-15 17:57:00,73.4,55.7,29.60,WSW,248,3.5,3.5,54,0.00,FEW,,0.00,WeatherDisplay:10.37,2013-05-15 21:57:00,
2013-05-15 18:02:00,73.2,55.6,29.60,South,180,4.6,4.6,54,0.00,FEW,,0.00,WeatherDisplay:10.37,2013-05-15 22:02:00,
2013-05-15 18:07:00,73.2,56.1,29.60,South,180,2.3,2.3,55,0.00,FEW,,0.00,WeatherDisplay:10.37,2013-05-15 22:07:00,
2013-05-15 18:12:00,73.2,56.6,29.60,WSW,248,0.0,1.2,56,0.00,FEW,,0.00,WeatherDisplay:10.37,2013-05-15 22:12:00,
2013-05-15 18:18:00,72.9,56.2,29.60,SW,225,3.5,3.5,56,0.00,FEW,,0.00,WeatherDisplay:10.37,2013-05-15 22:18:00,
2013-05-15 18:23:00,72.7,56.1,29.60,WSW,248,3.5,3.5,56,0.00,FEW,,0.00,WeatherDisplay:10.37,2013-05-15 22:23:00,
2013-05-15 18:28:00,72.7,56.6,29.60,West,270,3.5,3.5,57,0.00,FEW,,0.00,WeatherDisplay:10.37,2013-05-15 22:28:00,
2013-05-15 18:33:00,72.5,56.9,29.60,SW,225,2.3,2.3,58,0.00,FEW,,0.00,WeatherDisplay:10.37,2013-05-15 22:33:00,
2013-05-15 18:38:00,72.3,56.2,29.60,SSE,158,2.3,2.3,57,0.00,FEW,,0.00,WeatherDisplay:10.37,2013-05-15 22:38:00,
2013-05-15 18:43:00,72.5,56.9,29.60,South,180,2.3,2.3,58,0.00,FEW,,0.00,WeatherDisplay:10.37,2013-05-15 22:43:00,
2013-05-15 18:49:00,72.5,56.9,29.60,SW,225,3.5,3.5,58,0.00,FEW,,0.00,WeatherDisplay:10.37,2013-05-15 22:49:00,
2013-05-15 18:54:00,72.5,57.4,29.60,SW,225,1.2,1.7,59,0.00,FEW,,0.00,WeatherDisplay:10.37,2013-05-15 22:54:00,
2013-05-15 19:00:00,72.1,57.0,29.60,SSE,158,5.8,5.8,59,0.00,FEW,,0.00,WeatherDisplay:10.37,2013-05-15 23:00:00,
2013-05-15 19:05:00,72.1,57.0,29.60,SSW,202,9.2,9.2,59,0.00,FEW,,0.00,WeatherDisplay:10.37,2013-05-15 23:05:00,
2013-05-15 19:10:00,72.1,57.0,29.60,SSE,158,4.6,4.6,59,0.00,FEW,,0.00,WeatherDisplay:10.37,2013-05-15 23:10:00,
2013-05-15 19:15:00,72.0,56.8,29.60,South,180,3.5,3.5,59,0.00,FEW,,0.00,WeatherDisplay:10.37,2013-05-15 23:15:00,
2013-05-15 19:21:00,72.0,56.8,29.60,SSW,202,5.8,5.8,59,0.00,FEW,,0.00,WeatherDisplay:10.37,2013-05-15 23:21:00,
2013-05-15 19:26:00,71.8,56.7,29.59,South,180,2.3,3.0,59,0.00,FEW,,0.00,WeatherDisplay:10.37,2013-05-15 23:26:00,
2013-05-15 19:31:00,71.8,56.7,29.59,South,180,2.3,2.6,59,0.00,FEW,,0.00,WeatherDisplay:10.37,2013-05-15 23:31:00,
2013-05-15 19:36:00,71.4,56.3,29.59,SSE,158,4.6,4.6,59,0.00,FEW,,0.00,WeatherDisplay:10.37,2013-05-15 23:36:00,
2013-05-15 19:41:00,71.2,56.6,29.59,SE,135,4.6,4.6,60,0.00,FEW,,0.00,WeatherDisplay:10.37,2013-05-15 23:41:00,
2013-05-15 19:46:00,71.1,56.5,29.59,South,180,3.5,3.5,60,0.00,FEW,,0.00,WeatherDisplay:10.37,2013-05-15 23:46:00,
2013-05-15 19:51:00,71.1,56.5,29.59,SW,225,1.2,1.2,60,0.00,FEW,,0.00,WeatherDisplay:10.37,2013-05-15 23:51:00,
2013-05-15 19:57:00,70.5,56.4,29.59,SSW,202,4.0,4.0,61,0.00,FEW,,0.00,WeatherDisplay:10.37,2013-05-15 23:57:00,
2013-05-15 20:03:00,70.5,56.4,29.59,South,180,5.8,5.8,61,0.00,FEW,,0.00,WeatherDisplay:10.37,2013-05-16 00:03:00,
2013-05-15 20:08:00,70.3,56.2,29.59,SW,225,4.6,4.6,61,0.00,FEW,,0.00,WeatherDisplay:10.37,2013-05-16 00:08:00,
2013-05-15 20:13:00,70.3,56.7,29.59,South,180,2.3,2.3,62,0.00,FEW,,0.00,WeatherDisplay:10.37,2013-05-16 00:13:00,
2013-05-15 20:19:00,70.0,56.4,29.59,SW,225,3.5,3.5,62,0.00,FEW,,0.00,WeatherDisplay:10.37,2013-05-16 00:19:00,
2013-05-15 20:24:00,70.0,56.4,29.59,WSW,248,3.5,3.5,62,0.00,FEW,,0.00,WeatherDisplay:10.37,2013-05-16 00:24:00,
2013-05-15 20:29:00,69.8,56.2,29.59,SW,225,2.3,2.3,62,0.00,FEW,,0.00,WeatherDisplay:10.37,2013-05-16 00:29:00,
2013-05-15 20:34:00,69.6,56.5,29.59,SSW,202,2.3,2.3,63,0.00,FEW,,0.00,WeatherDisplay:10.37,2013-05-16 00:34:00,
2013-05-15 20:39:00,69.4,56.3,29.59,South,180,3.5,3.5,63,0.00,FEW,,0.00,WeatherDisplay:10.37,2013-05-16 00:39:00,
2013-05-15 20:44:00,69.4,56.3,29.59,South,180,2.2,2.2,63,0.00,FEW,,0.00,WeatherDisplay:10.37,2013-05-16 00:44:00,
2013-05-15 20:50:00,69.1,56.4,29.59,SSW,202,2.3,2.3,64,0.00,FEW,,0.00,WeatherDisplay:10.37,2013-05-16 00:50:00,
2013-05-15 20:55:00,69.1,56.4,29.59,SW,225,2.6,2.6,64,0.00,FEW,,0.00,WeatherDisplay:10.37,2013-05-16 00:55:00,
2013-05-15 21:00:00,68.9,56.6,29.59,SSW,202,2.3,2.3,65,0.00,FEW,,0.00,WeatherDisplay:10.37,2013-05-16 01:00:00,
2013-05-15 21:05:00,68.7,56.5,29.60,SW,225,2.3,2.3,65,0.00,FEW,,0.00,WeatherDisplay:10.37,2013-05-16 01:05:00,
2013-05-15 21:10:00,68.5,56.3,29.60,SSW,202,2.1,2.1,65,0.00,FEW,,0.00,WeatherDisplay:10.37,2013-05-16 01:10:00,
2013-05-15 21:15:00,68.5,56.7,29.60,SW,225,2.3,2.3,66,0.00,FEW,,0.00,WeatherDisplay:10.37,2013-05-16 01:15:00,
2013-05-15 21:20:00,68.4,56.6,29.60,WSW,248,2.3,2.3,66,0.00,FEW,,0.00,WeatherDisplay:10.37,2013-05-16 01:20:00,
2013-05-15 21:27:00,68.4,56.6,29.60,SW,225,2.3,2.3,66,0.00,FEW,,0.00,WeatherDisplay:10.37,2013-05-16 01:27:00,
2013-05-15 21:32:00,68.2,56.4,29.60,WSW,248,0.0,0.3,66,0.00,FEW,,0.00,WeatherDisplay:10.37,2013-05-16 01:32:00,
2013-05-15 21:37:00,68.0,56.6,29.60,WSW,248,1.2,0.0,67,0.00,FEW,,0.00,WeatherDisplay:10.37,2013-05-16 01:37:00,
2013-05-15 21:42:00,68.2,56.8,29.60,WSW,248,0.0,0.0,67,0.00,FEW,,0.00,WeatherDisplay:10.37,2013-05-16 01:42:00,
2013-05-15 21:47:00,67.8,56.5,29.61,WSW,248,0.0,0.0,67,0.00,FEW,,0.00,WeatherDisplay:10.37,2013-05-16 01:47:00,
2013-05-15 21:53:00,67.8,56.9,29.61,SSW,202,1.2,1.2,68,0.00,FEW,,0.00,WeatherDisplay:10.37,2013-05-16 01:53:00,
2013-05-15 21:58:00,67.8,56.9,29.61,SW,225,1.2,1.2,68,0.00,FEW,,0.00,WeatherDisplay:10.37,2013-05-16 01:58:00,
2013-05-15 22:03:00,67.5,56.5,29.61,SSW,202,1.2,1.2,68,0.00,FEW,,0.00,WeatherDisplay:10.37,2013-05-16 02:03:00,
2013-05-15 22:08:00,67.5,56.9,29.61,SSW,202,2.3,2.3,69,0.00,FEW,,0.00,WeatherDisplay:10.37,2013-05-16 02:08:00,
2013-05-15 22:13:00,67.5,56.9,29.61,South,180,2.3,2.3,69,0.00,FEW,,0.00,WeatherDisplay:10.37,2013-05-16 02:13:00,
2013-05-15 22:18:00,67.5,56.9,29.61,SW,225,2.3,2.3,69,0.00,FEW,,0.00,WeatherDisplay:10.37,2013-05-16 02:18:00,
2013-05-15 22:23:00,67.1,57.0,29.61,WSW,248,0.0,0.7,70,0.00,FEW,,0.00,WeatherDisplay:10.37,2013-05-16 02:23:00,
2013-05-15 22:28:00,66.9,56.8,29.62,NW,315,1.2,1.2,70,0.00,FEW,,0.00,WeatherDisplay:10.37,2013-05-16 02:28:00,
2013-05-15 22:34:00,66.7,56.6,29.62,NW,315,5.8,5.8,70,0.00,FEW,,0.00,WeatherDisplay:10.37,2013-05-16 02:34:00,
2013-05-15 22:39:00,66.7,57.0,29.62,NNE,22,2.3,3.2,71,0.00,FEW,,0.00,WeatherDisplay:10.37,2013-05-16 02:39:00,
2013-05-15 22:44:00,66.9,57.2,29.62,NNW,338,3.5,3.5,71,0.00,FEW,,0.00,WeatherDisplay:10.37,2013-05-16 02:44:00,
2013-05-15 22:50:00,67.1,57.4,29.64,NW,315,3.5,3.5,71,0.00,FEW,,0.00,WeatherDisplay:10.37,2013-05-16 02:50:00,
2013-05-15 22:55:00,67.1,57.4,29.64,NW,315,2.3,2.3,71,0.00,FEW,,0.00,WeatherDisplay:10.37,2013-05-16 02:55:00,
2013-05-15 23:00:00,67.1,57.4,29.64,NW,315,2.3,2.3,71,0.00,FEW,,0.00,WeatherDisplay:10.37,2013-05-16 03:00:00,
2013-05-15 23:05:00,67.1,57.4,29.64,South,180,0.0,0.8,71,0.00,FEW,,0.00,WeatherDisplay:10.37,2013-05-16 03:05:00,
2013-05-15 23:10:00,66.9,57.2,29.63,WNW,292,2.3,2.3,71,0.00,FEW,,0.00,WeatherDisplay:10.37,2013-05-16 03:10:00,
2013-05-15 23:15:00,67.1,57.4,29.63,SSE,158,2.3,2.3,71,0.00,FEW,,0.00,WeatherDisplay:10.37,2013-05-16 03:15:00,
2013-05-15 23:20:00,67.1,57.0,29.63,SSW,202,2.3,2.3,70,0.00,FEW,,0.00,WeatherDisplay:10.37,2013-05-16 03:20:00,
2013-05-15 23:26:00,67.3,57.2,29.63,WSW,248,2.3,2.3,70,0.00,FEW,,0.00,WeatherDisplay:10.37,2013-05-16 03:26:00,
2013-05-15 23:31:00,67.5,57.3,29.63,SSW,202,3.5,3.5,70,0.00,FEW,,0.00,WeatherDisplay:10.37,2013-05-16 03:31:00,
2013-05-15 23:36:00,67.5,57.3,29.63,SW,225,2.3,2.3,70,0.00,FEW,,0.00,WeatherDisplay:10.37,2013-05-16 03:36:00,
2013-05-15 23:41:00,67.3,57.2,29.63,WSW,248,0.0,0.3,70,0.00,FEW,,0.00,WeatherDisplay:10.37,2013-05-16 03:41:00,
2013-05-15 23:46:00,67.5,57.3,29.63,NNW,338,0.0,0.0,70,0.00,FEW,,0.00,WeatherDisplay:10.37,2013-05-16 03:46:00,
2013-05-15 23:51:00,67.1,57.0,29.63,WSW,248,0.0,0.0,70,0.00,FEW,,0.00,WeatherDisplay:10.37,2013-05-16 03:51:00,
2013-05-15 23:56:00,67.1,57.0,29.63,NW,315,0.0,0.0,70,0.00,FEW,,0.00,WeatherDisplay:10.37,2013-05-16 03:56:00,